sat.trackr.live / text

‹ back to catalog

STARLINK-2237

NORAD 48583 · 2021-041AG

PAYLOAD ACTIVE UNKNOWN

§ Identity

Operator
Country
US
Launch date
2021-05-15
Launch site
AFETR
Launch vehicle
Mass (kg)
RCS (m²)

Purposes: comms

External: N2YO · Heavens-Above · Gunter

§ Orbital elements

Epoch: 2026-09-09T14:52:22.178496Z

Period
94.01 min
Inclination
53.1590°
Eccentricity
0.0000865
Mean motion
15.31726793 rev/d
Perigee alt
470.1 km
Apogee alt
471.3 km
Semi-major
6,848.8 km
B*
2.7153e-4
RAAN
13.0257°
Arg perigee
92.5063°
Mean anomaly
267.6038°
Rev number
29,313

§ Raw data

STARLINK-22371 48583U 21041AG  26252.61970114  .00008077  00000+0  27153-3 0  99942 48583  53.1590  13.0257 0000865  92.5063 267.6038 15.31726793293139

JSON: /api/v1/satellites/48583 · /tle

For live sub-satellite position, see the globe view (requires WebGL).

§ Visibility from observer

Set your observer location to see the next 7 days of passes ≥ 10°. The values pass through the URL so the page stays shareable.

No JS? Fill the form by hand. The geolocation button needs JavaScript.